{"data":{"norad_id":67601,"intl_designator":"2026-018N","name":"STARLINK-36635","alt_names":[],"object_type":"PAYLOAD","status":"ACTIVE","operator":null,"country":"US","launch_date":"2026-01-29","launch_site_code":"AFWTR","launch_vehicle":null,"mission":null,"orbit_class":"UNKNOWN","rcs_meters":null,"size_class":null,"mass_kg":null,"dimensions":null,"purposes":["comms"],"wikipedia_slug":null,"has_3d_model":false,"image_url":null,"decayed_at":null,"tle_current":{"epoch":"2026-05-25T03:10:49.697760Z","epoch_age_seconds":57440,"freshness":"FRESH","line1":"1 67601U 26018N   26145.13251965  .00014260  00000+0  44307-3 0  9990","line2":"2 67601  97.2839 210.3276 0000343 150.3378 209.7884 15.33454749 19056","mean_motion":15.33454749,"eccentricity":3.43e-5,"inclination_deg":97.2839,"raan_deg":210.3276,"arg_perigee_deg":150.3378,"mean_anomaly_deg":209.7884,"bstar":0.00044307,"rev_number":1905,"period_min":93.905607644377,"perigee_km":465.27943123173,"apogee_km":465.74890570189,"semimajor_km":6843.6511684668,"source":"CELESTRAK","updated_at":"2026-05-25T13:38:21.621660Z"}}}